星链-3518 (STARLINK-3518 )

导读 | 豆包AI

STARLINK-3518是美国太空探索技术公司(SpaceX)星链(Starlink)互联网卫星星座的一员,于2022年2月21日发射入轨。星链项目旨在构建全球卫星互联网,为全球偏远地区等提供高速互联网接入服务,该卫星是星链星座部署过程中的组成部分,助力星座全球覆盖能力的构建。

基本信息
目录编号:
51732
目录名称:
STARLINK-3518
国际标识:
2022-016U
轨道中心:
EARTH
卫星名称:
星链-3518
卫星全名:
星链-3518 (STARLINK-3518 )
卫星状态:
在轨 (已飞行1482 天)
发射日期:
2022-02-21 UTC
国别 :
美国 (US)
星等 :
--
轨道信息
数据来源 国际轨道数据 AOE轨道数据
星历时间 2026-03-14T05:39:39+0800
22小时前
查看轨道信息
2026-03-12T15:00:00+0800
2天前
查看轨道信息
半长轴 6917.876km 6917.811km
偏心率 0.0001834 0.000176
轨道倾角 53.218° 53.216°
近地点辐角 91.234° 82.644°
升交点赤经 300.213° 307.443°
平近点角 268.887° 162.763°
近地点 538.47km 538.456km
远地点 541.008km 540.892km
周期 95.437分钟 95.436分钟
每日圈数 15.088416 15.088629
详细信息
固有亮度:
5
最大亮度:
2.5
卫星平台:
Starlink v1.5
覆盖范围:
全球
运营商:
太空探索技术公司
运营商所在国:
美国
制造商(研发单位):
太空探索技术公司
制造商所在国:
美国
使用方式:
暂无
卫星简介
星链(Starlink)计划是由太空探索技术公司(SpaceX)提出的一个巨型低轨卫星互联网星座项目,计划在2019年至2024年间在太空搭建由约1.2万颗卫星组成的“星链”网络,其中1584颗将部署在地球上空550千米处的近地轨道,并从2020年开始工作。该卫星仍在工作。
2D轨道图
3D轨道图
轨道高度分析图
轨道倾角分析图
轨道综合分析图
查看轨道综合分析图